Terminal Aerodrome Forecast
Issued by NWS

Home | Current Version | Previous Version | Text Only | Print | Product List | Glossary On
Versions: 1 2 3 4 5 6 7 8 9 10 11 12 13 14 15 16 17 18 19 20 21 22 23 24 25 26 27 28 29 30 31 32 33 34 35
000
FTUS45 KBOI 271724
TAFJER
TAF
KJER 271724Z 2718/2818 VRB05KT P6SM FEW040 BKN150
     FM280700 22007KT P6SM VCSH SCT025 OVC045
     FM280900 23009KT 4SM -SN SCT015 OVC025
     FM281200 24013KT 1SM -SN OVC015=

USA.gov is the U.S. government's official web portal to all federal, state and local government web resources and services.